DW3501 Weather Reports


time (UTC)temp
C
wind
direction
speed
KPH
gust
KPH
rain 1hr
cm
rain 24hr
cm
rain mn
cm
humidity
%
barometer
mb
20260510043353 8 215 4.8 11.3 0.00 0.00 0.00 99 1009.7
20260510042851 8 186 3.2 9.7 0.00 0.00 0.00 99 1009.7
20260510042346 8 189 4.8 8.0 0.00 0.00 0.00 99 1009.5
20260510041843 8 212 4.8 4.8 0.00 0.00 0.00 99 1009.4
20260510041340 8 224 3.2 4.8 0.00 0.00 0.00 99 1009.6
20260510040838 8 227 1.6 3.2 0.00 0.00 0.00 99 1009.6
20260510040334 8 222 1.6 4.8 0.00 0.00 0.00 99 1009.7
20260510035830 8 226 3.2 8.0 0.00 1.07 1.07 99 1009.8
20260510035326 8 242 4.8 9.7 0.00 1.07 1.07 99 1009.8
20260510034822 8 222 3.2 9.7 0.00 1.07 1.07 99 1009.6
20260510034320 8 203 4.8 9.7 0.00 1.07 1.07 99 1009.8
20260510033816 8 225 1.6 11.3 0.00 1.07 1.07 99 1009.7
20260510033313 8 221 4.8 11.3 0.00 1.07 1.07 99 1009.8
20260510032809 8 211 8.0 14.5 0.00 1.07 1.07 99 1009.6
20260510032306 8 204 4.8 11.3 0.00 1.07 1.07 99 1009.4
20260510031802 8 189 3.2 9.7 0.00 1.07 1.07 99 1009.6
20260510031257 8 244 9.7 16.1 0.00 1.07 1.07 99 1009.3
20260510030751 8 240 4.8 8.0 0.00 1.07 1.07 99 1009.4
20260510030248 8 242 4.8 9.7 0.00 1.07 1.07 99 1009.6
20260510025745 8 238 3.2 9.7 0.00 1.07 1.07 99 1009.4
20260510025243 8 255 6.4 11.3 0.00 1.07 1.07 99 1009.6
20260510024740 8 241 3.2 9.7 0.00 1.07 1.07 99 1009.4
20260510024236 8 162 4.8 8.0 0.00 1.07 1.07 99 1009.6
20260510023731 8 230 1.6 8.0 0.00 1.07 1.07 99 1009.4
20260510023224 8 238 0.0 4.8 0.00 1.07 1.07 99 1009.3
20260510022720 8 302 0.0 3.2 0.00 1.07 1.07 99 1009.3
20260510022219 8 199 6.4 8.0 0.00 1.07 1.07 99 1009.1
20260510021715 8 177 4.8 4.8 0.00 1.07 1.07 99 1009.2
20260510021213 8 257 1.6 4.8 0.00 1.07 1.07 99 1009.4
20260510020707 8 217 3.2 4.8 0.00 1.07 1.07 99 1009.2
20260510020202 8 206 8.0 9.7 0.00 1.07 1.07 99 1009.5
20260510015658 8 217 8.0 9.7 0.00 1.07 1.07 99 1009.6
20260510015155 8 233 1.6 4.8 0.00 1.07 1.07 99 1009.4
20260510014650 8 210 4.8 8.0 0.00 1.07 1.07 99 1009.2
20260510014148 8 216 4.8 9.7 0.00 1.07 1.07 99 1009.3
20260510013643 8 245 3.2 9.7 0.00 1.07 1.07 99 1009.3
20260510013139 8 231 3.2 8.0 0.00 1.07 1.07 99 1009.1
20260510012638 8 252 4.8 4.8 0.00 1.07 1.07 99 1009.1
20260510012134 8 240 1.6 4.8 0.00 1.07 1.07 99 1009.4
20260510011629 8 231 3.2 3.2 0.00 1.07 1.07 99 1009.4
20260510011125 8 238 4.8 4.8 0.00 1.07 1.07 99 1009.1
20260510010621 8 179 1.6 8.0 0.00 1.07 1.07 99 1008.8
20260510010119 8 227 1.6 3.2 0.00 1.07 1.07 99 1009.0
20260510005614 8 231 0.0 4.8 0.00 1.07 1.07 99 1009.0
20260510005111 8 188 1.6 3.2 0.00 1.07 1.07 99 1008.7
20260510004609 8 235 0.0 1.6 0.00 1.07 1.07 99 1008.7
20260510004107 9 210 0.0 3.2 0.00 1.07 1.07 99 1009.0
20260510003604 9 173 0.0 8.0 0.00 1.07 1.07 99 1009.0
20260510003059 9 222 4.8 8.0 0.00 1.07 1.07 99 1009.0
20260510002554 9 236 3.2 4.8 0.00 1.07 1.07 99 1008.8
20260510002051 9 236 4.8 11.3 0.00 1.07 1.07 99 1009.0
20260510001549 9 235 3.2 4.8 0.00 1.07 1.07 99 1008.5
20260510001048 9 249 4.8 8.0 0.00 1.07 1.07 99 1008.5
20260510000542 9 214 1.6 3.2 0.00 1.07 1.07 99 1008.5
20260510000039 9 223 3.2 4.8 0.00 1.07 1.07 99 1008.8
20260509235536 9 235 6.4 12.9 0.00 1.07 1.07 99 1008.3
20260509235033 9 205 3.2 4.8 0.00 1.07 1.07 99 1008.6
20260509234529 9 244 1.6 8.0 0.00 1.07 1.07 99 1008.4
20260509234027 9 251 3.2 8.0 0.00 1.07 1.07 99 1008.2
20260509233524 9 232 4.8 11.3 0.00 1.07 1.07 99 1008.3
20260509233021 9 202 4.8 4.8 0.00 1.07 1.07 99 1008.4
20260509232518 9 254 1.6 3.2 0.00 1.07 1.07 99 1008.2
20260509232014 9 253 4.8 4.8 0.00 1.07 1.07 99 1008.2
20260509231511 9 254 1.6 8.0 0.00 1.07 1.07 99 1008.2
20260509231009 9 253 1.6 8.0 0.00 1.07 1.07 99 1008.3
20260509230505 10 202 3.2 8.0 0.00 1.07 1.07 99 1008.3
20260509230002 10 235 4.8 4.8 0.00 1.07 1.07 99 1008.0
20260509225458 10 243 3.2 3.2 0.00 1.07 1.07 99 1007.8
20260509224953 10 211 4.8 11.3 0.00 1.07 1.07 99 1008.2
20260509224449 10 250 8.0 9.7 0.00 1.07 1.07 99 1008.1
20260509223946 10 243 3.2 8.0 0.00 1.07 1.07 99 1007.9
20260509223443 10 255 1.6 8.0 0.00 1.07 1.07 99 1008.2
20260509222940 10 274 4.8 8.0 0.00 1.07 1.07 99 1007.8
20260509222435 10 225 3.2 8.0 0.00 1.07 1.07 99 1008.1
20260509221931 10 212 1.6 11.3 0.00 1.07 1.07 99 1008.1
20260509221429 10 304 6.4 12.9 0.00 1.07 1.07 99 1008.2
20260509220924 10 229 6.4 9.7 0.00 1.07 1.07 99 1008.2
20260509220420 9 225 9.7 12.9 0.00 1.07 1.07 99 1008.1
20260509215917 9 248 6.4 9.7 0.00 1.07 1.07 99 1008.1
20260509215412 9 163 9.7 14.5 0.00 1.07 1.07 99 1008.2
20260509214910 9 240 4.8 11.3 0.00 1.07 1.07 99 1008.2
20260509214407 10 238 4.8 9.7 0.00 1.07 1.07 99 1008.3
20260509213904 9 214 8.0 20.9 0.00 1.07 1.07 99 1008.3
20260509213359 9 201 3.2 14.5 0.00 1.07 1.07 99 1008.3
20260509212857 9 248 6.4 14.5 0.00 1.07 1.07 99 1008.5
20260509212354 9 182 3.2 8.0 0.00 1.07 1.07 99 1008.4
20260509211850 9 262 1.6 4.8 0.00 1.07 1.07 99 1008.3
20260509211346 9 254 6.4 12.9 0.00 1.07 1.07 99 1008.3
20260509210843 9 229 6.4 9.7 0.00 1.07 1.07 99 1008.5
20260509210341 9 205 3.2 9.7 0.00 1.07 1.07 99 1008.6
20260509205840 9 240 3.2 8.0 0.00 1.07 1.07 99 1008.7
20260509205335 9 207 4.8 12.9 0.00 1.07 1.07 99 1008.7
20260509204832 9 227 8.0 11.3 0.00 1.07 1.07 99 1008.5
20260509204328 9 250 4.8 9.7 0.00 1.07 1.07 99 1008.6
20260509203824 9 251 6.4 12.9 0.00 1.07 1.07 99 1008.4
20260509203321 10 259 4.8 11.3 0.00 1.07 1.07 99 1008.4
20260509202817 10 252 8.0 11.3 0.00 1.07 1.07 99 1008.6
20260509202314 9 243 6.4 9.7 0.00 1.07 1.07 99 1008.8
20260509201813 9 214 11.3 14.5 0.00 1.07 1.07 99 1008.6
20260509201310 9 232 8.0 9.7 0.00 1.07 1.07 99 1008.6
20260509200806 9 214 6.4 14.5 0.00 1.07 1.07 99 1009.0
20260509200302 8 242 6.4 12.9 0.00 1.07 1.07 99 1008.8
20260509195758 8 219 6.4 11.3 0.00 1.07 1.07 99 1009.1
20260509195254 8 205 4.8 11.3 0.00 1.07 1.07 99 1009.1
20260509194748 8 201 4.8 16.1 0.00 1.07 1.07 99 1009.1
20260509194244 8 229 4.8 9.7 0.00 1.07 1.07 99 1009.3
20260509193741 8 226 6.4 11.3 0.00 1.07 1.07 99 1009.3
20260509193241 8 244 1.6 8.0 0.00 1.07 1.07 99 1009.2
20260509192737 8 203 0.0 8.0 0.00 1.07 1.07 99 1009.1
20260509192232 8 227 3.2 8.0 0.00 1.07 1.07 99 1009.2
20260509191728 8 192 6.4 8.0 0.00 1.07 1.07 99 1009.3
20260509191225 8 214 6.4 11.3 0.00 1.07 1.07 99 1009.1
20260509190721 8 196 4.8 9.7 0.00 1.07 1.07 99 1009.2
20260509190218 8 241 3.2 11.3 0.00 1.07 1.07 99 1009.4
20260509185716 8 257 3.2 12.9 0.00 1.07 1.07 99 1009.3
20260509185212 8 235 1.6 11.3 0.00 1.07 1.07 99 1009.3
20260509184709 8 210 4.8 8.0 0.18 1.07 1.07 99 1009.5
20260509184207 8 22 6.4 9.7 0.18 1.07 1.07 99 1009.3
20260509183703 8 249 3.2 4.8 0.00 1.04 1.04 99 1009.3
20260509183158 8 112 8.0 9.7 0.00 1.04 1.04 99 1009.3
20260509182654 8 237 4.8 8.0 0.00 1.04 1.04 99 1009.4
20260509182151 8 190 6.4 8.0 0.00 1.04 1.04 99 1009.4
20260509181649 8 193 8.0 11.3 0.18 1.04 1.04 99 1009.3
20260509181147 8 222 3.2 4.8 0.18 1.04 1.04 99 1009.3
20260509180643 8 240 0.0 9.7 0.00 1.02 1.02 99 1009.3
20260509180139 8 233 4.8 9.7 0.00 1.02 1.02 99 1009.3
20260509175635 8 233 4.8 8.0 0.00 1.02 1.02 99 1009.2
20260509175132 8 242 6.4 14.5 0.13 1.02 1.02 99 1009.0
20260509174628 8 214 6.4 14.5 0.00 0.99 0.99 99 1009.0
20260509174123 8 242 6.4 11.3 0.00 0.99 0.99 99 1009.3
20260509173619 8 224 9.7 12.9 0.00 0.99 0.99 99 1009.0
20260509173115 8 248 3.2 8.0 0.00 0.99 0.99 99 1009.1
20260509172612 8 60 8.0 9.7 0.00 0.99 0.99 99 1009.0
20260509172108 8 234 8.0 11.3 0.00 0.99 0.99 99 1009.1
20260509171604 8 244 4.8 9.7 0.00 0.99 0.99 99 1009.1
20260509171100 8 243 8.0 12.9 0.00 0.99 0.99 99 1009.4
20260509170557 8 221 4.8 8.0 0.00 0.99 0.99 99 1009.4
20260509170053 8 253 3.2 8.0 0.00 0.99 0.99 99 1009.4
20260509165551 8 252 4.8 9.7 0.00 0.99 0.99 99 1009.4
20260509165047 8 225 4.8 9.7 0.00 0.99 0.99 99 1009.4
20260509164543 8 226 3.2 9.7 0.18 0.99 0.99 99 1009.4
20260509164044 8 254 3.2 8.0 0.18 0.99 0.99 99 1009.5
20260509163543 8 243 1.6 4.8 0.00 0.97 0.97 99 1009.6
20260509163037 8 227 0.0 4.8 0.00 0.97 0.97 99 1009.6
20260509162535 8 226 3.2 4.8 0.00 0.97 0.97 99 1009.7
20260509162031 8 237 1.6 9.7 0.00 0.97 0.97 99 1009.8
20260509161527 8 235 4.8 8.0 0.13 0.97 0.97 99 1009.8
20260509161022 8 237 4.8 8.0 0.30 0.97 0.97 99 1009.9
20260509160518 8 247 3.2 11.3 0.18 0.94 0.94 99 1010.1
20260509160014 8 248 1.6 4.8 0.13 0.91 0.91 99 1010.2
20260509155510 8 244 3.2 4.8 0.13 0.91 0.91 99 1010.2
20260509155006 7 244 4.8 8.0 0.18 0.89 0.89 99 1010.3
20260509154503 8 243 4.8 8.0 0.13 0.86 0.86 99 1010.2
20260509154000 8 231 3.2 9.7 0.13 0.86 0.86 99 1010.8
20260509153457 7 214 4.8 9.7 0.18 0.84 0.84 99 1010.7
20260509152954 7 188 4.8 9.7 0.18 0.84 0.84 99 1010.4
20260509152449 7 238 4.8 11.3 0.13 0.81 0.81 99 1010.7
20260509151947 7 243 4.8 12.9 0.13 0.81 0.81 99 1010.5
20260509151443 7 262 6.4 8.0 0.18 0.79 0.79 99 1010.7
20260509150941 7 98 6.4 11.3 0.13 0.76 0.76 99 1010.7
20260509150438 7 94 6.4 11.3 0.13 0.76 0.76 99 1010.7
20260509145937 7 245 1.6 9.7 0.00 0.74 0.74 99 1010.5
20260509145437 7 244 4.8 8.0 0.18 0.74 0.74 99 1010.4
20260509144932 7 280 1.6 4.8 0.18 0.74 0.74 99 1010.4
20260509144430 7 255 3.2 11.3 0.18 0.71 0.71 99 1010.5
20260509143927 7 249 6.4 8.0 0.18 0.71 0.71 99 1010.5
20260509143424 7 233 3.2 4.8 0.13 0.69 0.69 99 1010.5
20260509142920 7 253 3.2 4.8 0.13 0.69 0.69 99 1010.8
20260509142417 7 210 3.2 4.8 0.18 0.66 0.66 99 1010.8
20260509141913 7 235 1.6 4.8 0.18 0.66 0.66 99 1010.4
20260509141410 7 287 0.0 4.8 0.13 0.64 0.64 99 1010.4
20260509140906 7 242 0.0 3.2 0.13 0.64 0.64 99 1010.4
20260509140403 7 234 1.6 3.2 0.18 0.61 0.61 99 1010.7
20260509135901 7 250 3.2 8.0 0.18 0.61 0.61 99 1010.9
20260509135358 7 250 1.6 8.0 0.00 0.58 0.58 99 1010.7
20260509134855 7 249 1.6 3.2 0.13 0.58 0.58 99 1010.7
20260509134353 7 243 3.2 3.2 0.13 0.58 0.58 99 1010.5
20260509133849 7 248 3.2 4.8 0.18 0.56 0.56 99 1010.7
20260509133346 7 244 3.2 4.8 0.18 0.56 0.56 99 1010.8
20260509132845 7 245 0.0 8.0 0.13 0.53 0.53 99 1010.7
20260509132343 7 202 4.8 8.0 0.18 0.51 0.51 99 1010.8
20260509131839 7 235 1.6 4.8 0.18 0.51 0.51 99 1010.7
20260509131336 7 232 3.2 4.8 0.13 0.48 0.48 99 1010.8
20260509130833 7 242 1.6 3.2 0.18 0.46 0.46 99 1011.0
20260509130328 7 242 1.6 4.8 0.30 0.46 0.46 99 1010.9
20260509125825 6 252 1.6 3.2 0.13 0.43 0.43 99 1010.8
20260509125322 6 300 1.6 4.8 0.18 0.41 0.41 99 1010.5
20260509124818 6 257 1.6 4.8 0.18 0.41 0.41 99 1010.5
20260509124315 6 237 0.0 4.8 0.18 0.38 0.38 99 1010.5
20260509123813 6 241 1.6 9.7 0.00 0.36 0.36 99 1010.8
20260509123310 6 186 3.2 9.7 0.13 0.36 0.36 99 1010.5
20260509122806 6 246 1.6 9.7 0.13 0.36 0.36 99 1010.8
20260509122306 6 240 3.2 3.2 0.00 0.33 0.33 99 1010.8
20260509121800 6 261 1.6 4.8 0.18 0.33 0.33 99 1010.8
20260509121257 6 231 4.8 8.0 0.18 0.33 0.33 99 1011.0
20260509120755 6 240 1.6 8.0 0.00 0.30 0.30 99 1011.0
20260509120252 6 234 1.6 3.2 0.13 0.30 0.30 99 1011.0
20260509115751 6 239 1.6 8.0 0.13 0.30 0.30 99 1011.0
20260509115247 6 236 1.6 4.8 0.00 0.28 0.28 99 1011.1
20260509114745 6 210 4.8 4.8 0.00 0.28 0.28 99 1011.0
20260509114244 6 260 0.0 3.2 0.18 0.28 0.28 99 1010.7
20260509113742 6 229 1.6 3.2 0.18 0.28 0.28 99 1010.8
20260509113239 6 236 1.6 9.7 0.13 0.25 0.25 99 1010.9
20260509112736 6 237 1.6 4.8 0.13 0.25 0.25 99 1011.0
20260509112233 6 236 0.0 4.8 0.18 0.23 0.23 99 1011.0
20260509111730 6 235 4.8 8.0 0.18 0.23 0.23 99 1011.1
20260509111226 5 237 1.6 4.8 0.00 0.20 0.20 99 1010.9
20260509110724 5 236 1.6 3.2 0.13 0.20 0.20 99 1010.8
20260509110220 5 229 1.6 4.8 0.13 0.20 0.20 99 1011.0
20260509105719 5 235 0.0 8.0 0.00 0.18 0.18 99 1010.7
20260509105216 5 243 3.2 3.2 0.00 0.18 0.18 99 1010.8
20260509104713 5 242 1.6 8.0 0.00 0.18 0.18 99 1010.5
20260509104209 5 242 1.6 8.0 0.00 0.18 0.18 99 1010.7
20260509103708 5 226 3.2 9.7 0.00 0.18 0.18 99 1010.5
20260509091358 4 238 1.6 4.8 0.00 0.15 0.15 99 1011.2
20260509090855 4 238 1.6 4.8 0.00 0.15 0.15 99 1011.2
20260509090352 4 249 0.0 3.2 0.00 0.15 0.15 99 1010.9
20260509085850 4 248 1.6 3.2 0.00 0.15 0.15 99 1011.0
20260509085347 4 247 1.6 3.2 0.00 0.15 0.15 99 1010.9
20260509084843 4 247 1.6 3.2 0.13 0.15 0.15 99 1011.0
20260509084340 5 248 1.6 3.2 0.13 0.15 0.15 99 1011.1
20260509083838 4 248 1.6 3.2 0.00 0.13 0.13 99 1010.9
20260509083334 4 248 1.6 3.2 0.00 0.13 0.13 99 1010.8
20260509082831 4 248 1.6 4.8 0.00 0.13 0.13 99 1011.1
20260509082328 4 248 1.6 3.2 0.18 0.13 0.13 99 1011.2
20260509081826 4 248 1.6 4.8 0.18 0.13 0.13 99 1011.3
20260509081322 4 249 1.6 4.8 0.00 0.10 0.10 99 1011.3
20260509080820 4 248 0.0 3.2 0.13 0.10 0.10 99 1011.3
20260509080318 4 243 4.8 8.0 0.30 0.10 0.10 98 1011.4
20260509075816 3 247 1.6 3.2 0.18 0.08 0.08 98 1011.5
20260509075313 3 248 1.6 4.8 0.00 0.05 0.05 97 1011.4
20260509074810 3 248 1.6 3.2 0.18 0.05 0.05 96 1011.4
20260509074308 3 225 1.6 3.2 0.00 0.03 0.03 96 1011.4
20260509073803 3 248 1.6 3.2 0.00 0.03 0.03 95 1011.2
20260509073300 3 210 3.2 3.2 0.13 0.03 0.03 94 1010.9
20260509072756 3 253 1.6 3.2 0.13 0.03 0.03 93 1011.2
20260509072253 4 253 1.6 3.2 0.00 0.00 0.00 92 1011.0
20260509071750 4 253 3.2 3.2 0.00 0.00 0.00 92 1011.3
20260509071247 4 253 0.0 1.6 0.00 0.00 0.00 91 1011.1
20260509070744 4 253 0.0 3.2 0.00 0.00 0.00 90 1011.0
20260509070240 4 253 1.6 1.6 0.00 0.00 0.00 87 1011.2
20260509065737 4 253 0.0 3.2 0.00 0.00 0.00 86 1011.2
20260509065233 4 253 0.0 3.2 0.00 0.00 0.00 86 1011.4
20260509064730 4 253 0.0 1.6 0.00 0.00 0.00 84 1011.3
20260509064227 4 253 1.6 1.6 0.00 0.00 0.00 83 1011.2
20260509063725 4 253 1.6 3.2 0.00 0.00 0.00 83 1011.3
20260509063221 4 253 1.6 3.2 0.00 0.00 0.00 82 1011.3
20260509062718 4 253 0.0 1.6 0.00 0.00 0.00 81 1011.4
20260509062215 4 254 1.6 3.2 0.00 0.00 0.00 80 1011.4
20260509061712 4 254 0.0 1.6 0.00 0.00 0.00 80 1011.2
20260509061210 3 254 0.0 3.2 0.00 0.00 0.00 80 1011.4
20260509060707 3 254 1.6 3.2 0.00 0.00 0.00 82 1011.6
20260509060203 3 323 0.0 1.6 0.00 0.00 0.00 81 1011.5
20260509055659 3 323 0.0 1.6 0.00 0.00 0.00 81 1011.4
20260509055155 3 323 0.0 1.6 0.00 0.00 0.00 81 1011.4
20260509054652 3 323 0.0 0.0 0.00 0.00 0.00 82 1011.7
20260509054149 3 323 0.0 1.6 0.00 0.00 0.00 81 1011.7
20260509053647 3 323 0.0 3.2 0.00 0.00 0.00 80 1011.7
20260509053144 3 323 0.0 1.6 0.00 0.00 0.00 79 1011.6
20260509052642 3 323 0.0 1.6 0.00 0.00 0.00 79 1011.7
20260509052139 3 323 0.0 3.2 0.00 0.00 0.00 79 1011.9
20260509051637 3 323 1.6 1.6 0.00 0.00 0.00 79 1012.1
20260509051134 3 323 0.0 1.6 0.00 0.00 0.00 79 1012.1
20260509050631 3 323 0.0 3.2 0.00 0.00 0.00 79 1011.9
20260509050127 3 323 0.0 1.6 0.00 0.00 0.00 79 1011.9
20260509045625 3 323 1.6 3.2 0.00 0.00 0.00 79 1011.9
20260509045122 3 323 0.0 1.6 0.00 0.00 0.00 79 1011.8
20260509044619 3 323 0.0 0.0 0.00 0.00 0.00 79 1011.9
20260509044116 3 323 0.0 1.6 0.00 0.00 0.00 78 1011.9